This is the latest recevied weather packets stored in our database for station/object KK4WXG. If no packets are shown the sender has not sent any weather packets the latest 10 day(s).
| Time | Temp. | Humidity | Pressure | Rain* | Wind** | Luminosity | Snow |
|---|---|---|---|---|---|---|---|
| 1777509309 | 14.44° C | 97% | 1006.1 hPa | 7.11 mm | - | 0 W/m² | - |
| 1777509006 | 14.44° C | 97% | 1006 hPa | 8.89 mm | - | 0 W/m² | - |
| 1777508400 | 14.44° C | 96% | 1006.3 hPa | 2.29 mm | - | 0 W/m² | - |
| 1777508097 | 14.44° C | 96% | 1006.2 hPa | 1.27 mm | - | 0 W/m² | - |
| 1777506278 | 14.44° C | 96% | 1005.4 hPa | 0 mm | - | 1 W/m² | - |
| 1777502939 | 14.44° C | 96% | 1006.5 hPa | 0 mm | - | 31 W/m² | - |
| 1777502333 | 14.44° C | 96% | 1006.7 hPa | 0 mm | - | 60 W/m² | - |
| 1777501727 | 14.44° C | 96% | 1006 hPa | 0 mm | - | 153 W/m² | - |
| 1777501424 | 13.89° C | 96% | 1005.5 hPa | 1.27 mm | - | 190 W/m² | - |
| 1777501121 | 13.89° C | 96% | 1004.8 hPa | 1.78 mm | - | 203 W/m² | - |
| 1777500820 | 13.89° C | 96% | 1005.4 hPa | 2.29 mm | - | 88 W/m² | - |
| 1777500517 | 13.89° C | 96% | 1005.9 hPa | 1.78 mm | - | 55 W/m² | - |
| 1777500212 | 13.89° C | 96% | 1006.4 hPa | 0.51 mm | - | 39 W/m² | - |
| 1777499910 | 13.89° C | 96% | 1006.9 hPa | 2.29 mm | - | 21 W/m² | - |
| 1777499001 | 13.89° C | 95% | 1007 hPa | 7.11 mm | - | 14 W/m² | - |
| 1777498697 | 13.89° C | 95% | 1007.4 hPa | 6.1 mm | - | 12 W/m² | - |
| 1777498091 | 13.89° C | 94% | 1007.6 hPa | 5.33 mm | - | 14 W/m² | - |
| 1777497788 | 13.89° C | 94% | 1007.9 hPa | 4.83 mm | - | 15 W/m² | - |
| 1777497484 | 14.44° C | 94% | 1007.8 hPa | 3.05 mm | - | 16 W/m² | - |
| 1777497180 | 14.44° C | 93% | 1007.6 hPa | 2.29 mm | - | 20 W/m² | - |
| 1777496877 | 14.44° C | 93% | 1007.6 hPa | 1.27 mm | - | 22 W/m² | - |
| 1777496574 | 14.44° C | 93% | 1007.6 hPa | 0 mm | - | 21 W/m² | - |
| 1777496270 | 14.44° C | 92% | 1007.6 hPa | 0 mm | - | 26 W/m² | - |
| 1777495966 | 14.44° C | 92% | 1007.5 hPa | 0 mm | - | 36 W/m² | - |
| 1777495056 | 14.44° C | 92% | 1007.7 hPa | 0.51 mm | - | 53 W/m² | - |
* Rain latest hour (hover to see other rain measurements)
** Current wind speed in m/s (hover to see current wind gust speed)